Peoria, IL

2:13 PM CST on November 13, 2019 (GMT -0600)
Greater Peoria Regional

Weather History for KPIA - October, 2019

Change the Weather History Date:

Monday, October 21, 2019

  Actual Average Record
Temperature  
Mean Temperature 58 °F 52 °F  
Max Temperature 64 °F 63 °F 86 °F (1979)
Min Temperature 50 °F 42 °F 22 °F (1930)
Degree Days  
Heating Degree Days 8 13  
Month to date heating degree days 193 210  
Since 1 July heating degree days 194 300  
Cooling Degree Days 0 0  
Month to date cooling degree days 22 12  
Year to date cooling degree days 1232 1036  
Growing Degree Days 8 (Base 50)    
Moisture  
Dew Point 50 °F    
Average Humidity 72    
Maximum Humidity 94    
Minimum Humidity 47    
Precipitation  
Precipitation 0.39 in 0.09 in 1.29 in (1912)
Month to date precipitation 1.44 1.86  
Year to date precipitation 42.64 29.96  
Snow  
Snow 0.00 in 0.00 in T in (1937)
Month to date snowfall 0.0 0.0  
Since 1 July snowfall 0.0 0.0  
Since 1 September snowfall 0.0 0.0  
Snow Depth 0.00 in    
Sea Level Pressure  
Sea Level Pressure 29.52 in    
Wind  
Wind Speed 13 mph ()    
Max Wind Speed 32 mph    
Max Gust Speed 45 mph    
Visibility 8.3 miles    
Events Rain , Thunderstorm    
T = Trace of Precipitation, MM = Missing Value Source: Averaged Metar Reports

Daily Weather History Graph

Daily Weather History Graph

Search for Another Location

Airport or City:

Astronomy

Oct. 21, 2019 Rise Set
Actual Time 7:16 AM CDT 6:09 PM CDT
Civil Twilight 6:48 AM CDT 6:37 PM CDT
Nautical Twilight 6:16 AM CDT 7:09 PM CDT
Astronomical Twilight 5:44 AM CDT 7:41 PM CDT
Moon No Moon Rise 2:35 PM CDT (10/21)
Length of Visible Light 11h 49m
Length of Day
10h 53m
Waning Gibbous, 48% of the Moon is Illuminated
Oct 21
Waning Gibbous
Oct 27
New
Nov 4
First Quarter
Nov 12
Full
Nov 19
Last Quarter

Hourly Weather History & Observations

Time (CDT) Temp. Dew Point Humidity Pressure Visibility Wind Dir Wind Speed Gust Speed Precip Events Conditions
12:54 AM 57.0 °F 50.0 °F 77% 29.75 in 10.0 mi East 6.9 mph - N/A   Unknown
1:54 AM 57.0 °F 50.0 °F 77% 29.73 in 10.0 mi East 8.1 mph - N/A   Overcast
2:54 AM 60.1 °F 50.0 °F 69% 29.69 in 10.0 mi SE 13.8 mph 23.0 mph N/A   Unknown
3:54 AM 60.1 °F 50.0 °F 69% 29.62 in 10.0 mi SE 13.8 mph 20.7 mph N/A   Partly Cloudy
4:54 AM 61.0 °F 51.1 °F 70% 29.58 in 10.0 mi SE 11.5 mph 25.3 mph N/A   Scattered Clouds
5:54 AM 60.1 °F 53.1 °F 78% 29.52 in 10.0 mi ESE 10.4 mph 23.0 mph 0.00 in Rain , Thunderstorm Light Rain
6:08 AM 60.1 °F 54.0 °F 80% 29.52 in 5.0 mi SE 11.5 mph 26.5 mph 0.02 in Rain Rain
6:15 AM 59.0 °F 54.0 °F 83% 29.52 in 5.0 mi SE 12.7 mph 25.3 mph 0.04 in Rain , Thunderstorm Rain
6:31 AM 59.0 °F 55.0 °F 87% 29.53 in 2.5 mi SSE 13.8 mph 23.0 mph 0.16 in Rain , Thunderstorm Rain
6:39 AM 59.0 °F 55.0 °F 87% 29.53 in 4.0 mi SSE 13.8 mph 23.0 mph 0.19 in Rain , Thunderstorm Rain
6:52 AM 57.2 °F 55.4 °F 94% 29.50 in 2.5 mi SE 13.8 mph 24.2 mph 0.29 in Rain Heavy Rain
6:54 AM 57.9 °F 55.0 °F 90% 29.48 in 2.5 mi ESE 16.1 mph 25.3 mph 0.30 in Rain Heavy Rain
7:01 AM 57.9 °F 55.0 °F 90% 29.46 in 3.0 mi SE 11.5 mph 25.3 mph 0.04 in Rain Heavy Rain
7:09 AM 57.9 °F 55.0 °F 90% 29.43 in 5.0 mi ESE 16.1 mph 24.2 mph 0.07 in Rain Light Rain
7:54 AM 59.0 °F 55.9 °F 90% 29.42 in 10.0 mi SE 12.7 mph 31.1 mph 0.09 in Rain Light Rain
10:05 AM 62.6 °F 57.2 °F 82% 29.42 in 10.0 mi SSW 21.9 mph 29.9 mph N/A Rain Light Rain
10:19 AM 62.1 °F 59.0 °F 90% 29.42 in 5.0 mi SSW 17.3 mph 28.8 mph 0.00 in Rain Light Rain
10:26 AM 62.1 °F 59.0 °F 90% 29.43 in 5.0 mi North - - 0.00 in   Overcast
10:54 AM 62.1 °F 57.9 °F 86% 29.43 in 10.0 mi SSW 19.6 mph 29.9 mph 0.00 in   Overcast
10:55 AM 62.6 °F 57.2 °F 82% 29.43 in 10.0 mi SSW 20.7 mph 29.9 mph N/A   Overcast
11:54 AM 64.0 °F 55.9 °F 75% 29.44 in 10.0 mi WSW 20.7 mph 32.2 mph N/A   Mostly Cloudy
11:55 AM 64.4 °F 55.4 °F 73% 29.44 in 10.0 mi WSW 20.7 mph 29.9 mph N/A   Mostly Cloudy
12:18 PM 64.0 °F 54.0 °F 70% 29.45 in 10.0 mi SW 28.8 mph 40.3 mph N/A   Scattered Clouds
12:54 PM 64.9 °F 48.0 °F 54% 29.45 in 10.0 mi SSW 29.9 mph 44.9 mph N/A   Scattered Clouds
1:54 PM 63.0 °F 43.0 °F 48% 29.46 in 10.0 mi SSW 20.7 mph 38.0 mph N/A   Clear
2:54 PM 63.0 °F 43.0 °F 48% 29.48 in 10.0 mi SSW 23.0 mph 31.1 mph N/A   Partly Cloudy
3:54 PM 60.1 °F 42.1 °F 51% 29.50 in 10.0 mi SW 26.5 mph 34.5 mph N/A   Mostly Cloudy
4:04 PM 60.8 °F 41.0 °F 48% 29.51 in 10.0 mi North - - N/A   Mostly Cloudy
4:54 PM 59.0 °F 39.9 °F 49% 29.55 in 10.0 mi WSW 23.0 mph 33.4 mph N/A   Overcast
5:54 PM 55.9 °F 37.9 °F 51% 29.58 in 10.0 mi WSW 21.9 mph 33.4 mph N/A   Overcast
6:54 PM 55.0 °F 37.9 °F 53% 29.59 in 10.0 mi SW 17.3 mph 32.2 mph N/A   Overcast
7:54 PM 55.0 °F 37.9 °F 53% 29.60 in 10.0 mi SW 17.3 mph - N/A   Overcast
8:54 PM 53.1 °F 39.0 °F 59% 29.61 in 10.0 mi SSW 15.0 mph - N/A   Mostly Cloudy
9:54 PM 52.0 °F 39.9 °F 63% 29.60 in 10.0 mi SSW 15.0 mph - N/A   Overcast
10:54 PM 50.0 °F 39.9 °F 68% 29.60 in 10.0 mi SSW 12.7 mph - N/A   Clear
11:54 PM 50.0 °F 39.9 °F 68% 29.59 in 10.0 mi SW 15.0 mph - N/A   Clear